Theta_e
318 321 321 321 320 320 320 321 320 320 319 315 314 312 310 312 313 313 315 314 315 316 313 311 310 310 308 307 308 308 307 307 309 307 307 309 311 311 311 312 314 314 315
316 318 319 319 319 320 321 323 322 320 317 318 316 312 311 312 312 313 313 313 314 314 312 309 309 309 307 307 307 307 306 306 309 306 305 303 306 310 312 313 313 314 315
315 316 317 318 320 322 323 321 320 318 319 318 314 312 312 311 309 309 310 311 311 312 311 310 309 308 307 305 305 308 306 304 307 307 304 302 300 304 310 311 313 313 313
316 316 317 319 323 323 323 322 321 319 319 315 311 310 307 306 306 308 308 307 309 310 310 310 309 307 306 305 306 309 306 305 303 304 307 309 307 302 301 308 310 311 311
316 317 320 321 322 323 321 320 321 317 315 314 312 310 308 307 307 306 305 306 310 310 310 309 308 307 305 305 305 306 304 304 302 302 303 307 308 308 303 301 304 308 312
318 320 317 315 314 318 319 318 313 309 309 309 308 307 305 304 304 305 306 306 308 308 307 307 306 306 305 305 306 305 303 303 302 304 306 306 304 303 303 302 303 303 309
312 308 307 307 307 305 306 307 305 304 305 306 306 305 304 305 304 304 306 306 304 304 304 305 305 304 306 308 307 304 303 303 304 306 305 306 306 306 304 304 303 303 307
303 303 302 301 301 302 301 301 301 301 303 303 303 304 304 304 303 303 303 304 303 303 304 304 304 306 306 305 305 304 303 304 303 304 306 305 305 306 305 304 302 301 305
298 298 299 299 299 298 298 298 299 300 301 301 301 302 303 302 302 302 303 302 303 303 305 303 303 304 304 306 304 302 304 305 304 304 305 304 304 306 306 307 306 304 300
297 297 298 299 300 299 298 299 299 298 300 300 300 302 300 301 302 301 301 301 302 303 303 302 303 303 303 304 304 304 305 305 305 305 305 305 305 306 306 305 306 305 305
297 298 298 300 299 298 297 297 298 298 298 299 300 300 300 300 300 300 300 301 301 302 302 303 303 303 304 304 304 305 305 304 303 304 304 304 304 303 303 304 304 304 304
299 299 299 298 297 297 297 296 297 297 298 299 299 299 299 300 299 299 300 301 301 302 302 303 303 304 304 302 303 304 303 303 302 303 303 303 304 301 303 302 302 302 302
299 297 296 296 297 297 297 297 297 297 298 299 299 299 299 299 299 300 300 301 302 302 302 303 303 304 303 301 301 304 303 303 303 303 303 302 302 301 301 303 301 303 302
298 298 297 295 295 296 296 297 297 298 299 299 299 298 299 299 300 300 301 302 302 302 302 303 303 303 302 301 301 303 303 303 304 301 300 300 300 301 301 302 301 303 302
299 297 295 294 294 295 296 297 297 298 299 298 298 299 300 301 301 301 302 302 302 302 302 303 302 300 301 301 301 302 303 302 301 298 298 299 303 303 303 302 302 303 301
297 296 296 295 295 295 296 297 297 298 298 297 298 300 301 301 301 301 302 302 301 301 302 300 300 299 299 300 301 304 302 303 298 296 297 298 300 301 301 302 305 305 303
296 295 295 294 294 294 296 296 297 297 297 298 300 301 301 301 301 300 300 300 300 300 303 301 300 298 299 299 299 302 303 301 298 298 297 297 299 300 299 300 303 304 305
294 294 293 293 295 295 295 296 297 297 298 299 300 301 301 300 300 298 297 298 298 299 300 302 302 300 300 299 298 300 305 301 299 298 297 298 299 301 300 301 303 304 305
294 294 294 294 295 295 295 295 296 297 299 299 301 301 301 299 297 296 296 297 296 296 297 302 302 300 299 298 297 299 303 301 300 299 298 300 299 298 297 301 302 301 301
294 294 295 294 294 295 295 296 297 297 298 300 300 301 301 297 295 295 295 295 296 297 299 298 298 299 298 297 296 298 303 299 298 298 298 299 298 296 296 303 302 299 299
294 295 294 293 294 296 297 297 297 298 300 301 300 300 298 296 295 295 295 294 295 296 296 298 299 299 299 298 296 296 299 298 297 296 298 299 297 295 296 298 300 299 300
293 294 293 294 298 298 298 297 298 300 301 299 300 299 298 297 296 296 295 295 295 296 297 297 297 299 299 298 297 296 296 298 297 297 298 299 296 295 296 298 296 297 299
293 294 294 295 297 298 299 297 300 301 299 300 299 298 298 298 297 297 296 296 296 295 295 295 295 296 298 297 297 296 296 298 298 299 299 297 296 297 299 297 297 298 299
293 294 295 297 296 298 299 300 301 299 298 298 297 298 297 297 298 298 298 296 294 294 294 294 294 295 296 296 296 298 298 298 299 300 301 300 299 299 300 300 299 299 299
294 295 296 296 296 297 300 299 299 298 299 298 298 298 298 298 298 298 297 296 296 294 293 294 295 294 293 294 294 294 297 297 297 300 301 300 299 299 300 300 300 300 300
296 296 296 296 296 297 299 299 299 298 296 297 297 297 298 298 297 297 297 295 295 294 293 292 293 297 293 293 293 293 293 293 294 299 299 299 299 298 298 298 298 298 298
Wind_Speed
4 9 11 9 9 7 7 3 5 1 2 2 4 4 4 2 2 2 2 4 3 3 3 3 4 4 5 6 7 5 9 8 6 5 7 8 9 9 7 7 9 10 9
8 11 13 8 7 6 5 3 4 5 3 3 3 3 2 2 2 2 3 4 5 5 5 5 4 5 5 7 7 7 4 8 7 5 8 5 6 3 9 8 7 9 7
11 11 11 9 8 8 8 6 3 4 4 7 3 2 2 2 3 3 2 3 5 5 5 5 4 5 4 5 6 6 8 7 8 9 4 4 3 9 4 10 6 7 7
11 10 11 10 7 7 8 5 4 7 6 3 4 4 3 3 2 2 2 4 4 6 6 6 5 5 4 5 6 6 6 6 8 8 5 7 5 4 6 7 6 6 10
10 10 9 7 6 4 4 3 5 2 5 3 4 2 2 2 2 2 5 4 4 5 7 7 6 5 5 5 6 7 7 6 5 6 6 7 5 4 4 9 10 10 8
9 11 11 9 6 5 3 4 3 4 6 6 5 4 5 5 5 6 6 5 5 5 8 7 6 5 6 6 5 6 6 6 6 6 6 5 3 5 5 6 11 11 8
12 12 11 10 9 9 7 5 7 5 6 4 5 6 5 4 4 5 5 6 4 4 7 6 7 5 6 6 5 5 6 6 6 7 5 5 4 4 6 7 9 7 9
9 10 8 6 5 7 8 7 7 6 7 6 6 4 5 3 4 4 5 4 3 4 6 6 6 7 7 6 5 5 5 5 6 8 6 5 5 4 5 6 7 10 6
9 8 6 5 6 7 8 9 9 7 6 6 5 5 5 5 4 6 5 4 5 5 5 5 6 6 7 6 6 5 5 6 5 6 6 5 4 6 5 6 6 5 4
6 6 5 5 3 6 7 8 8 6 6 6 5 5 6 5 5 5 6 6 6 4 6 6 6 7 6 5 5 4 5 6 6 5 6 5 4 5 4 5 6 5 5
4 4 5 5 8 6 6 6 6 6 6 6 5 5 5 6 5 5 6 6 5 5 6 6 6 5 5 5 5 6 6 8 7 6 6 6 6 5 5 5 5 5 4
8 6 7 7 6 6 5 6 5 6 5 5 5 6 6 6 6 6 6 5 6 5 5 6 5 4 4 4 5 6 5 6 7 7 7 8 6 7 6 5 7 6 6
4 5 6 5 5 5 6 6 5 5 5 5 6 6 6 5 6 6 6 5 5 5 5 4 4 4 4 5 4 4 4 4 4 6 7 8 8 8 8 7 8 6 6
2 4 5 5 5 5 5 5 6 5 6 6 6 6 6 6 6 6 6 5 5 5 5 4 4 3 4 5 5 6 5 5 4 6 7 8 8 9 10 8 8 7 7
4 5 5 5 5 5 6 6 6 7 6 7 6 6 6 5 5 5 5 5 4 4 4 4 4 5 4 5 7 6 5 3 5 5 7 8 11 14 12 6 6 7 5
3 4 6 7 7 6 6 6 7 8 7 6 6 6 5 5 5 5 5 5 5 5 4 5 5 6 5 12 13 9 4 2 4 6 7 8 10 12 14 11 10 6 4
5 7 7 6 6 6 6 8 8 8 6 6 6 6 5 4 4 5 6 6 6 4 4 3 4 5 6 13 14 12 3 3 3 5 7 8 8 10 10 11 8 4 3
7 6 5 6 6 5 7 6 5 5 5 6 5 5 5 5 5 6 6 5 4 5 4 5 6 5 5 13 14 13 3 2 3 4 7 8 9 9 11 8 5 3 3
5 5 5 5 6 7 6 6 6 6 5 6 7 7 4 4 6 6 6 5 4 4 5 6 6 6 7 12 13 10 5 3 4 6 7 8 9 12 12 5 5 8 9
4 5 6 5 6 7 6 5 5 6 6 8 7 5 4 5 5 5 5 4 3 5 5 5 6 8 8 11 13 9 3 4 5 6 7 10 11 12 9 6 6 9 7
6 6 6 6 7 7 5 7 6 6 7 7 6 5 5 4 4 4 3 4 5 5 5 6 4 5 6 8 12 9 5 4 4 5 6 6 13 10 12 12 8 7 6
6 6 6 7 8 6 5 6 6 6 6 5 4 4 4 5 4 4 5 6 7 7 7 7 5 5 6 9 10 9 8 8 5 5 4 4 10 13 12 10 12 11 9
6 5 5 8 7 5 4 5 6 5 6 5 5 4 4 3 3 5 6 5 7 6 6 5 5 5 5 5 10 7 9 9 4 4 7 10 10 11 12 15 14 9 7
6 5 7 6 7 7 6 5 6 5 4 5 5 4 4 5 4 4 4 5 5 6 6 5 5 5 5 6 5 5 5 7 6 7 6 8 9 12 9 9 10 8 7
5 5 6 5 6 6 7 7 7 5 5 4 4 4 3 4 5 4 3 4 2 3 3 4 4 4 5 4 5 5 5 4 5 5 6 7 7 7 7 8 8 7 7
6 6 6 6 7 6 7 7 7 6 5 5 5 4 4 4 4 4 4 5 3 7 8 7 4 3 5 7 8 8 9 10 10 6 6 7 7 7 6 6 6 7 8
Wind_Direction
92 102 116 94 84 68 82 63 126 63 330 19 69 278 274 353 354 329 13 20 348 344 346 322 320 331 324 309 311 308 323 317 308 296 315 291 280 280 289 287 293 297 302
127 121 112 89 64 90 124 46 18 14 340 313 241 243 311 298 303 333 355 2 357 356 347 327 321 326 325 324 326 326 316 320 329 312 300 317 297 322 312 294 293 294 313
121 113 97 96 114 77 13 71 1 285 252 242 273 326 358 344 349 346 348 1 351 342 328 319 321 318 320 310 311 307 330 313 321 323 301 304 335 318 307 305 317 326 330
96 99 107 109 89 103 179 155 229 262 256 333 337 360 313 310 276 290 320 323 347 330 327 325 317 304 311 309 315 317 323 311 312 317 302 290 283 315 317 313 328 347 321
116 112 99 114 125 119 223 202 236 345 303 340 349 344 325 267 291 309 336 337 341 337 333 331 321 324 318 299 293 308 319 306 294 298 295 299 297 282 313 308 326 322 323
88 81 65 47 15 340 340 333 109 37 23 41 34 44 30 344 358 346 350 344 340 335 328 326 327 314 308 308 305 309 301 296 293 279 293 315 322 328 312 304 318 318 321
65 68 58 49 37 29 34 61 48 37 23 20 23 19 9 353 345 343 336 330 323 312 320 324 323 312 305 301 307 300 299 299 298 303 304 303 304 298 299 301 309 313 314
65 67 59 58 46 42 24 18 17 11 7 2 353 345 358 346 338 335 312 285 284 286 295 301 305 309 308 299 309 312 299 288 291 296 299 301 302 288 289 294 303 307 314
68 64 55 48 37 25 28 8 3 353 349 345 346 344 338 337 318 304 289 288 287 285 277 297 304 306 307 308 318 312 309 311 300 303 307 302 297 303 296 295 285 278 305
93 90 64 31 49 34 14 3 359 342 330 334 338 334 320 310 295 289 285 285 279 279 302 304 301 305 311 317 315 322 330 331 333 338 324 332 332 321 321 324 320 312 312
116 105 85 47 27 5 359 342 326 318 320 325 312 311 307 303 298 290 288 285 295 297 294 291 295 301 314 326 335 351 359 360 351 347 349 356 346 340 333 324 326 326 332
37 8 21 20 358 340 323 313 326 318 310 311 308 299 298 307 303 298 294 299 296 300 293 291 285 298 311 335 349 353 354 2 357 344 353 355 346 343 331 334 343 331 326
30 348 344 349 342 326 327 317 307 308 308 307 310 312 311 316 316 307 308 309 312 303 305 288 291 317 331 336 334 324 333 341 333 337 349 348 346 343 341 340 343 335 329
345 289 315 334 323 308 305 317 323 318 306 311 324 316 314 315 309 311 323 322 311 305 310 319 336 349 330 330 334 322 319 334 349 5 0 351 339 332 339 337 346 339 337
267 323 314 314 308 327 339 335 315 308 315 319 313 308 317 319 326 336 328 319 323 318 330 8 16 3 344 343 331 314 303 326 357 6 3 348 348 341 339 327 335 329 340
308 335 347 346 339 331 319 309 312 314 318 310 303 308 322 329 335 335 330 339 344 358 12 17 11 2 353 340 344 334 281 5 23 357 359 340 348 339 338 336 330 327 336
356 359 341 318 313 314 319 315 312 310 314 312 314 323 326 338 333 339 352 356 348 341 351 347 350 352 354 352 354 360 356 60 34 359 353 348 343 343 336 326 321 326 332
2 335 318 316 314 302 300 292 292 309 325 324 325 329 334 326 349 9 360 348 355 356 338 351 359 351 356 357 359 351 346 68 15 355 354 341 337 340 331 319 331 27 40
325 301 299 298 302 303 306 305 315 324 328 337 335 329 332 350 9 2 354 3 358 359 358 1 1 2 348 353 356 355 348 58 358 7 353 350 338 331 327 329 67 76 74
314 305 310 309 315 309 311 318 315 320 327 327 320 327 356 25 18 359 359 345 343 348 354 357 4 358 351 354 351 358 14 29 5 0 346 341 343 339 351 45 72 71 53
315 326 337 310 288 298 321 327 327 337 320 320 330 11 43 46 21 7 3 355 355 1 344 350 335 345 355 354 355 7 38 25 12 359 351 345 353 17 49 61 65 68 78
330 330 322 312 308 318 320 318 314 310 330 333 9 40 45 37 15 4 6 4 360 0 351 348 352 350 1 12 12 29 41 19 18 358 335 343 18 45 53 64 63 61 69
317 309 312 312 311 329 339 330 319 340 354 10 36 46 39 21 12 5 3 9 2 354 343 348 353 355 9 10 13 29 23 14 12 350 13 33 36 48 56 54 51 50 58
310 303 304 313 325 330 342 341 346 356 28 38 38 23 12 352 358 2 1 4 360 347 352 5 10 16 13 16 3 9 6 8 9 10 30 44 53 55 51 53 46 51 54
300 302 318 330 322 343 15 10 6 18 35 26 27 17 7 3 355 1 0 353 340 353 342 358 7 11 22 8 9 24 19 7 10 36 47 47 43 46 46 48 49 50 53
317 344 357 352 359 16 27 17 19 28 28 24 17 7 1 0 5 5 2 30 351 0 24 36 32 46 45 28 33 36 32 30 19 53 47 45 45 48 49 51 54 50 55